When you browse on this site, cookies collect data to enhance your experience and personalize the content and advertising you see.
Visit our Privacy Policy to learn more. By continuing to use the site, you agree to this use of cookies and data.
  • Em Portugal
  • Lista de países
  • Para 7 dias
  • Temperatura da água
  • Mapas de satélite
  • Mapa do tempo
  • Widgets de tempo
  • user-avatar
    Iniciar Sessão

    Previsão horária em Ahwaz

    Hoje, 20 Novembro, Terça-feira

    Tempo Temperatura Precipitação Vento Pressão Humidade
    00:00 +20°C° 0 mm 2 m/s 763 mmHg 50%
    01:00 +19°C° 0 mm 2 m/s 763 mmHg 51%
    02:00 +19°C° 0 mm 2 m/s 762 mmHg 52%
    03:00 +18°C° 0 mm 3 m/s 762 mmHg 52%
    04:00 +18°C° 0 mm 3 m/s 762 mmHg 52%
    05:00 +18°C° 0 mm 3 m/s 763 mmHg 53%
    06:00 +17°C° 0 mm 3 m/s 763 mmHg 53%
    07:00 +18°C° 0 mm 3 m/s 763 mmHg 50%
    08:00 +19°C° 0 mm 3 m/s 763 mmHg 46%
    09:00 +19°C° 0 mm 4 m/s 763 mmHg 44%
    10:00 +21°C° 0 mm 4 m/s 763 mmHg 39%
    11:00 +22°C° 0 mm 4 m/s 763 mmHg 35%
    12:00 +23°C° 0 mm 4 m/s 763 mmHg 31%
    13:00 +23°C° 0 mm 4 m/s 763 mmHg 30%
    14:00 +23°C° 0 mm 4 m/s 762 mmHg 28%
    15:00 +25°C° 0 mm 3 m/s 762 mmHg 27%
    16:00 +24°C° 0 mm 3 m/s 762 mmHg 29%
    17:00 +22°C° 0 mm 3 m/s 762 mmHg 32%
    18:00 +21°C° 0 mm 2 m/s 763 mmHg 35%
    19:00 +21°C° 0 mm 2 m/s 763 mmHg 36%
    20:00 +21°C° 0 mm 2 m/s 763 mmHg 38%
    21:00 +20°C° 0 mm 2 m/s 763 mmHg 40%
    22:00 +20°C° 0 mm 2 m/s 763 mmHg 41%
    23:00 +19°C° 0 mm 2 m/s 763 mmHg 42%

    Amanhã, 21 Novembro, Quarta-feira

    Tempo Temperatura Precipitação Vento Pressão Humidade
    00:00 +19°C° 0 mm 2 m/s 763 mmHg 43%
    01:00 +19°C° 0 mm 2 m/s 762 mmHg 44%
    02:00 +18°C° 0 mm 2 m/s 762 mmHg 45%
    03:00 +18°C° 0 mm 2 m/s 762 mmHg 46%
    04:00 +18°C° 0 mm 2 m/s 762 mmHg 46%
    05:00 +17°C° 0 mm 2 m/s 762 mmHg 47%
    06:00 +17°C° 0 mm 2 m/s 763 mmHg 48%
    07:00 +18°C° 0 mm 2 m/s 763 mmHg 45%
    08:00 +19°C° 0 mm 2 m/s 763 mmHg 42%
    09:00 +20°C° 0 mm 2 m/s 763 mmHg 38%
    10:00 +21°C° 0 mm 2 m/s 763 mmHg 36%
    11:00 +23°C° 0 mm 2 m/s 763 mmHg 33%
    12:00 +24°C° 0 mm 2 m/s 763 mmHg 30%
    13:00 +24°C° 0 mm 2 m/s 762 mmHg 29%
    14:00 +25°C° 0 mm 2 m/s 762 mmHg 27%
    15:00 +25°C° 0 mm 3 m/s 762 mmHg 26%
    16:00 +25°C° 0 mm 2 m/s 762 mmHg 30%
    17:00 +24°C° 0 mm 2 m/s 762 mmHg 33%
    18:00 +23°C° 0 mm 1 m/s 762 mmHg 37%
    19:00 +22°C° 0 mm 1 m/s 762 mmHg 38%
    20:00 +22°C° 0 mm 1 m/s 762 mmHg 39%
    21:00 +21°C° 0 mm 1 m/s 763 mmHg 41%
    22:00 +21°C° 0 mm 1 m/s 762 mmHg 42%
    23:00 +19°C° 0 mm 0 m/s 762 mmHg 43%

    Depois de amanhã, 22 Novembro, Quinta-feira

    Tempo Temperatura Precipitação Vento Pressão Humidade
    00:00 +18°C° 0 mm 0 m/s 762 mmHg 44%
    01:00 +18°C° 0 mm 0 m/s 762 mmHg 44%
    02:00 +18°C° 0 mm 0 m/s 762 mmHg 45%
    03:00 +17°C° 0 mm 0 m/s 762 mmHg 46%
    04:00 +17°C° 0 mm 0 m/s 762 mmHg 46%
    05:00 +18°C° 0 mm 0 m/s 762 mmHg 46%
    06:00 +18°C° 0 mm 0 m/s 762 mmHg 46%
    07:00 +19°C° 0 mm 0 m/s 762 mmHg 42%
    08:00 +22°C° 0 mm 1 m/s 763 mmHg 37%
    09:00 +23°C° 0 mm 1 m/s 763 mmHg 33%
    10:00 +24°C° 0 mm 1 m/s 762 mmHg 32%
    11:00 +25°C° 0 mm 1 m/s 762 mmHg 30%
    12:00 +25°C° 0 mm 1 m/s 762 mmHg 29%
    13:00 +26°C° 0 mm 1 m/s 761 mmHg 28%
    14:00 +26°C° 0 mm 1 m/s 761 mmHg 28%
    15:00 +26°C° 0 mm 1 m/s 761 mmHg 27%
    16:00 +26°C° 0 mm 1 m/s 761 mmHg 31%
    17:00 +25°C° 0 mm 1 m/s 761 mmHg 34%
    18:00 +24°C° 0 mm 1 m/s 761 mmHg 37%
    19:00 +24°C° 0 mm 1 m/s 761 mmHg 37%
    20:00 +24°C° 0 mm 2 m/s 761 mmHg 37%
    21:00 +23°C° 0 mm 2 m/s 762 mmHg 37%
    22:00 +23°C° 0 mm 2 m/s 761 mmHg 39%
    23:00 +21°C° 0 mm 2 m/s 761 mmHg 41%

    23 Novembro, Sexta-feira

    Tempo Temperatura Precipitação Vento Pressão Humidade
    00:00 +21°C° 0 mm 2 m/s 761 mmHg 44%
    01:00 +21°C° 0 mm 2 m/s 761 mmHg 44%
    02:00 +21°C° 0 mm 2 m/s 761 mmHg 44%
    03:00 +21°C° 0 mm 2 m/s 761 mmHg 44%
    04:00 +22°C° 0 mm 1 m/s 761 mmHg 45%
    05:00 +22°C° 0 mm 1 m/s 761 mmHg 47%
    06:00 +21°C° 0 mm 1 m/s 761 mmHg 48%
    07:00 +21°C° 1.2 mm 1 m/s 761 mmHg 54%
    08:00 +19°C° 1.2 mm 2 m/s 762 mmHg 60%
    09:00 +19°C° 1.2 mm 2 m/s 762 mmHg 67%
    10:00 +18°C° 2.3 mm 3 m/s 762 mmHg 68%
    11:00 +17°C° 2.3 mm 5 m/s 762 mmHg 70%
    12:00 +16°C° 2.3 mm 6 m/s 761 mmHg 72%
    13:00 +16°C° 2.9 mm 7 m/s 761 mmHg 74%
    14:00 +16°C° 2.9 mm 8 m/s 761 mmHg 76%
    15:00 +16°C° 2.9 mm 9 m/s 761 mmHg 78%
    16:00 +16°C° 0.9 mm 9 m/s 761 mmHg 76%
    17:00 +16°C° 0.9 mm 8 m/s 761 mmHg 75%
    18:00 +16°C° 0.9 mm 8 m/s 761 mmHg 73%
    19:00 +16°C° 0.6 mm 8 m/s 761 mmHg 76%
    20:00 +17°C° 0.6 mm 8 m/s 761 mmHg 79%
    21:00 +17°C° 0.6 mm 8 m/s 761 mmHg 82%
    22:00 +17°C° 1.5 mm 7 m/s 761 mmHg 82%
    23:00 +18°C° 1.5 mm 7 m/s 761 mmHg 82%

    24 Novembro, Sábado

    Tempo Temperatura Precipitação Vento Pressão Humidade
    00:00 +19°C° 1.5 mm 6 m/s 761 mmHg 82%
    01:00 +19°C° 1.5 mm 5 m/s 761 mmHg 82%
    02:00 +19°C° 1.5 mm 5 m/s 761 mmHg 82%
    03:00 +19°C° 1.5 mm 4 m/s 761 mmHg 82%
    04:00 +18°C° 0.7 mm 4 m/s 761 mmHg 81%
    05:00 +17°C° 0.7 mm 5 m/s 761 mmHg 80%
    06:00 +17°C° 0.7 mm 5 m/s 762 mmHg 79%
    07:00 +19°C° 0.2 mm 6 m/s 762 mmHg 76%
    08:00 +20°C° 0.2 mm 7 m/s 763 mmHg 72%
    09:00 +21°C° 0.2 mm 8 m/s 763 mmHg 69%
    10:00 +22°C° 0.2 mm 8 m/s 763 mmHg 66%
    11:00 +23°C° 0.2 mm 8 m/s 762 mmHg 62%
    12:00 +24°C° 0.2 mm 9 m/s 762 mmHg 59%
    13:00 +26°C° 0.2 mm 9 m/s 762 mmHg 59%
    14:00 +26°C° 0.2 mm 8 m/s 762 mmHg 59%
    15:00 +26°C° 0.2 mm 8 m/s 762 mmHg 59%
    16:00 +24°C° 0.4 mm 8 m/s 762 mmHg 63%
    17:00 +23°C° 0.4 mm 8 m/s 762 mmHg 68%
    18:00 +22°C° 0.4 mm 7 m/s 762 mmHg 72%
    19:00 +22°C° 0.8 mm 8 m/s 763 mmHg 74%
    20:00 +22°C° 0.8 mm 8 m/s 763 mmHg 77%
    21:00 +21°C° 0.8 mm 8 m/s 763 mmHg 80%
    22:00 +21°C° 0.7 mm 7 m/s 763 mmHg 79%
    23:00 +21°C° 0.7 mm 7 m/s 763 mmHg 79%

    25 Novembro, Domingo

    Tempo Temperatura Precipitação Vento Pressão Humidade
    00:00 +21°C° 0.7 mm 6 m/s 762 mmHg 79%
    01:00 +20°C° 2.1 mm 6 m/s 762 mmHg 80%
    02:00 +20°C° 2.1 mm 6 m/s 762 mmHg 82%
    03:00 +20°C° 2.1 mm 6 m/s 761 mmHg 83%
    04:00 +19°C° 1.5 mm 5 m/s 761 mmHg 84%
    05:00 +19°C° 1.5 mm 5 m/s 761 mmHg 84%
    06:00 +19°C° 1.5 mm 5 m/s 762 mmHg 84%
    07:00 +20°C° 0.3 mm 5 m/s 762 mmHg 80%
    08:00 +21°C° 0.3 mm 6 m/s 762 mmHg 76%
    09:00 +22°C° 0.3 mm 7 m/s 762 mmHg 71%
    10:00 +22°C° 1.4 mm 7 m/s 762 mmHg 69%
    11:00 +23°C° 1.4 mm 6 m/s 762 mmHg 67%
    12:00 +24°C° 1.4 mm 6 m/s 761 mmHg 65%
    13:00 +24°C° 1.9 mm 6 m/s 761 mmHg 66%
    14:00 +24°C° 1.9 mm 6 m/s 761 mmHg 67%
    15:00 +23°C° 1.9 mm 5 m/s 760 mmHg 68%
    16:00 +23°C° 0.2 mm 5 m/s 761 mmHg 71%
    17:00 +22°C° 0.2 mm 4 m/s 761 mmHg 74%
    18:00 +22°C° 0.2 mm 4 m/s 761 mmHg 76%
    19:00 +22°C° 0.1 mm 4 m/s 761 mmHg 78%
    20:00 +21°C° 0.1 mm 3 m/s 761 mmHg 80%
    21:00 +21°C° 0.1 mm 3 m/s 761 mmHg 82%
    22:00 +21°C° 1.6 mm 2 m/s 761 mmHg 85%
    23:00 +20°C° 1.6 mm 2 m/s 761 mmHg 87%
    Mostrar mais